Tracking 29892 objects as of 21-Nov-2024
HD Live streaming from Space Station
objects crossing your sky now

BSAT-1B

Track BSAT-1B now!
BSAT-1B is classified as:


NORAD ID: 25312
Int'l Code: 1998-024B
Perigee: 36,095.4 km
Apogee: 36,144.0 km
Inclination: 10.3 °
Period: 1,452.8 minutes
Semi major axis: 42490 km
RCS: 15.8489 m2 (large)
Launch date: April 28, 1998
Source: Japan (JPN)
Launch site: FRENCH GUIANA (FRGUI)

8 Ku-band; voice and video communication for Japan and vicinity.
Your satellite tracking list
Your tracking list is empty




NASA's NSSDC Master Catalog

Two Line Element Set (TLE):
1 25312U 98024B   24325.40739779 -.00000008  00000-0  00000-0 0  9997
2 25312  10.3024  49.6271 0005711 208.4536 153.1476  0.99120209 40470
Source of the keplerian elements: AFSPC